TimeEDT,TemperatureF,Dew PointF,Humidity,Sea Level PressureIn,VisibilityMPH,Wind Direction,Wind SpeedMPH,Gust SpeedMPH,PrecipitationIn,Events,Conditions,WindDirDegrees,DateUTC
12:51 AM,73.0,70.0,90,29.61,10.0,SSW,3.5,-,N/A,,Overcast,200,2013-07-24 04:51:00
1:51 AM,73.0,70.0,90,29.60,10.0,Calm,Calm,-,N/A,,Overcast,0,2013-07-24 05:51:00
2:51 AM,73.0,70.0,90,29.60,10.0,Calm,Calm,-,N/A,,Mostly Cloudy,0,2013-07-24 06:51:00
3:51 AM,72.0,70.0,93,29.60,10.0,Calm,Calm,-,N/A,,Overcast,0,2013-07-24 07:51:00
4:51 AM,73.0,70.0,90,29.60,10.0,Calm,Calm,-,N/A,,Overcast,0,2013-07-24 08:51:00
5:51 AM,72.0,70.0,93,29.62,10.0,SSW,3.5,-,N/A,,Mostly Cloudy,200,2013-07-24 09:51:00
6:51 AM,75.0,70.0,84,29.62,10.0,SW,3.5,-,N/A,,Mostly Cloudy,220,2013-07-24 10:51:00
7:51 AM,78.1,70.0,76,29.64,10.0,West,3.5,-,N/A,,Mostly Cloudy,270,2013-07-24 11:51:00
8:51 AM,81.0,68.0,65,29.66,10.0,Variable,5.8,-,N/A,,Mostly Cloudy,0,2013-07-24 12:51:00
9:51 AM,82.9,66.9,58,29.67,10.0,WNW,9.2,-,N/A,,Mostly Cloudy,300,2013-07-24 13:51:00
10:51 AM,84.9,69.1,59,29.69,10.0,NW,6.9,-,N/A,,Mostly Cloudy,320,2013-07-24 14:51:00
11:51 AM,84.0,68.0,58,29.70,10.0,West,6.9,-,N/A,,Overcast,270,2013-07-24 15:51:00
12:51 PM,86.0,66.9,53,29.70,10.0,WSW,10.4,-,N/A,,Overcast,250,2013-07-24 16:51:00
1:51 PM,84.9,66.0,53,29.70,10.0,West,4.6,-,N/A,,Overcast,270,2013-07-24 17:51:00
2:51 PM,82.9,66.9,58,29.72,10.0,WNW,9.2,-,N/A,,Overcast,300,2013-07-24 18:51:00
3:51 PM,84.9,66.0,53,29.73,10.0,NW,10.4,-,N/A,,Mostly Cloudy,310,2013-07-24 19:51:00
4:51 PM,82.0,64.9,56,29.74,10.0,NNW,6.9,16.1,N/A,,Mostly Cloudy,330,2013-07-24 20:51:00
5:51 PM,82.0,64.0,54,29.76,10.0,WNW,12.7,-,N/A,,Mostly Cloudy,300,2013-07-24 21:51:00
6:51 PM,81.0,62.1,52,29.78,10.0,NNW,8.1,-,N/A,,Mostly Cloudy,340,2013-07-24 22:51:00
7:51 PM,79.0,61.0,54,29.83,10.0,NNW,8.1,-,N/A,,Mostly Cloudy,330,2013-07-24 23:51:00
8:51 PM,77.0,61.0,58,29.85,10.0,NNW,4.6,-,N/A,,Scattered Clouds,330,2013-07-25 00:51:00
9:51 PM,75.9,59.0,56,29.87,10.0,NNW,5.8,-,N/A,,Mostly Cloudy,340,2013-07-25 01:51:00
10:51 PM,75.0,60.1,60,29.90,10.0,NNW,9.2,-,N/A,,Mostly Cloudy,340,2013-07-25 02:51:00
11:51 PM,73.0,59.0,61,29.92,10.0,NNE,18.4,-,N/A,,Overcast,20,2013-07-25 03:51:00